Starlink 34667

operational
NORAD ID: 64815 Int'l Des: 2025-150 Owner: SPXS Country: US Constellation: starlink
LEOCIRCULAR

About Starlink 34667

Description loading...

Live Position

Loading 3D Globe...

Upcoming Passes

Altitude History

Altitude vs Time

uPlot chart will show altitude changes over time

Two-Line Element Set

1 64815U 25150AB 25350.91670139 -.02931535 00000-0 -23607+0 0 9995
2 64815 69.9982 343.1759 0003124 270.1973 218.3183 15.04132056 5952
Epoch: Dec 16, 2025 • Age: 9 hours

Current Status

Altitude 576.4 km
Velocity 7.57 km/s
Sub-Earth Point -44.39°S, 133.3°E
Launch Date Jul 16, 2025
Age 0.4 years
Type internet

Technical Details

Classification Payload
Mass 575.00 kg
Dry Mass 530.00 kg
Total Mass 575.00 kg
Length 0.30 m
Diameter 4.10 m
Span 29.00 m
Shape Box + pan
Manufacturer SPXS
Bus Type Starlink V2MO
Phase Status In Orbit
Owner/State SPXS/US

Large Constellations

Loading constellations...